Location: ?????
(31.8092°N, 35.2590°E)
Time: 03:20:21
(UTC+00:00)

Lacrosse 5 - Pass Details

Date: 25 October 2021
Orbit: 714 x 724 km, 57.0° (Epoch: 28 August)

Event Time Altitude Azimuth Distance (km) Brightness Sun altitude
Exits shadow 02:07:08 26° 339° (NNW) 1,403 3.1 -22.4°
Maximum altitude 02:09:55 60° 50° (NE) 822 2.3 -21.8°
Drops below altitude 10° 02:14:53 10° 130° (SE) 2,188 5.1 -20.8°
Sets 02:17:17 0° 134° (SE) 3,104 5.9 -20.2°
